This is the latest recevied weather packets stored in our database for station/object K2RMB. If no packets are shown the sender has not sent any weather packets the latest 10 day(s).
| Time | Temp. | Humidity | Pressure | Rain* | Wind** | Luminosity | Snow |
|---|---|---|---|---|---|---|---|
| 1777682637 | 10° C | 53% | 1012.5 hPa | 0 mm | - | 0 W/m² | - |
| 1777682335 | 10° C | 53% | 1012.1 hPa | 0 mm | - | 0 W/m² | - |
| 1777682032 | 10.56° C | 53% | 1012.1 hPa | 0 mm | - | 0 W/m² | - |
| 1777681728 | 10.56° C | 53% | 1012.1 hPa | 0 mm | - | 0 W/m² | - |
| 1777681426 | 10.56° C | 52% | 1011.8 hPa | 0 mm | - | 0 W/m² | - |
| 1777681123 | 10.56° C | 52% | 1012.1 hPa | 0 mm | - | 0 W/m² | - |
| 1777680820 | 11.11° C | 52% | 1012.1 hPa | 0 mm | - | 0 W/m² | - |
| 1777680518 | 11.11° C | 48% | 1011.8 hPa | 0 mm | - | 0 W/m² | - |
| 1777680216 | 11.11° C | 49% | 1011.8 hPa | 0 mm | - | 1 W/m² | - |
| 1777679912 | 11.11° C | 49% | 1011.8 hPa | 0 mm | - | 1 W/m² | - |
| 1777679607 | 11.11° C | 47% | 1011.8 hPa | 0 mm | - | 2 W/m² | - |
| 1777679303 | 11.67° C | 46% | 1011.8 hPa | 0 mm | - | 3 W/m² | - |
| 1777679000 | 11.67° C | 47% | 1011.5 hPa | 0 mm | - | 5 W/m² | - |
| 1777678699 | 11.67° C | 46% | 1011.5 hPa | 0 mm | - | 6 W/m² | - |
| 1777678396 | 11.67° C | 45% | 1011.8 hPa | 0 mm | - | 7 W/m² | - |
| 1777678091 | 11.67° C | 46% | 1011.5 hPa | 0 mm | - | 9 W/m² | - |
| 1777677788 | 11.67° C | 45% | 1011.5 hPa | 0 mm | - | 11 W/m² | - |
| 1777677486 | 11.67° C | 44% | 1011.5 hPa | 0 mm | - | 16 W/m² | - |
| 1777677184 | 11.67° C | 43% | 1011.1 hPa | 0 mm | - | 22 W/m² | - |
| 1777676882 | 12.22° C | 44% | 1011.1 hPa | 0 mm | - | 34 W/m² | - |
| 1777676580 | 12.22° C | 43% | 1011.1 hPa | 0 mm | - | 40 W/m² | - |
| 1777676277 | 12.22° C | 43% | 1011.1 hPa | 0 mm | - | 35 W/m² | - |
| 1777675976 | 12.22° C | 43% | 1011.1 hPa | 0 mm | - | 46 W/m² | - |
| 1777675671 | 12.22° C | 43% | 1010.8 hPa | 0 mm | - | 51 W/m² | - |
| 1777675369 | 12.22° C | 42% | 1011.1 hPa | 0 mm | - | 53 W/m² | - |
* Rain latest hour (hover to see other rain measurements)
** Current wind speed in m/s (hover to see current wind gust speed)